Location: ?????????
(54.7630°N, 39.4991°E)
Time: 07:31:23
(UTC+00:00)

Landsat 5 - Pass Details

Date: 14 April 2026
Orbit: 507 x 601 km, 98.1° (Epoch: 12 May)

Event Time Altitude Azimuth Distance (km) Brightness Sun altitude
Rises 22:07:48 0° 13° (NNE) 2,829 8.4 -24.9°
Reaches altitude 10° 22:09:58 10° 11° (NNE) 1,934 7.2 -24.8°
Enters shadow 22:13:55 68° 315° (NW) 650 3.6 -24.7°
